User: anonymous   Login
Location: Unspecified
(51.6591°N, 0.0000°E)
Time: 21:37:30
(UTC+00:00)
Language:

Meteor 1-28 Rocket - Orbit

View from above orbital plane
View from above orbital plane
View from above satellite
View from above satellite

Ground track
Ground track

The orbit is defined by the following mean orbital elements,

1 10114U          26088.13944237 +.00000000 +00000-0 +37598-3 0 00002
2 10114  97.5793 260.9278 0006781 203.9986 156.0948 15.46044970    05
Epoch (UTC): 29 March 2026 03:20:47
Eccentricity: 0.0006781
inclination: 97.5793°
perigee height: 424 km
apogee height: 433 km
right ascension of ascending node: 260.9278°
argument of perigee: 203.9986°
revolutions per day: 15.46044970
mean anomaly at epoch: 156.0948°

The dashed part of the orbit path shows where the satellite is in the earth's shadow,  

DLR